Russellville, AR

9:25 AM CDT on March 28, 2017 (GMT -0500)
Russellville Regional

Weather History for KRUE - January, 2014

Change the Weather History Date:

Sunday, January 5, 2014

  Actual Average (KHOT) Record (KHOT)
Temperature  
Mean Temperature 36 °F -  
Max Temperature 54 °F 48 °F 68 °F (1956)
Min Temperature 17 °F 28 °F 8 °F (1959)
Degree Days  
Heating Degree Days 29    
Moisture  
Dew Point 27 °F    
Average Humidity 74    
Maximum Humidity 93    
Minimum Humidity 41    
Precipitation  
Precipitation 0.26 in - - ()
Sea Level Pressure  
Sea Level Pressure 29.95 in    
Wind  
Wind Speed 8 mph (NW)    
Max Wind Speed 18 mph    
Max Gust Speed 31 mph    
Visibility 8 miles    
Events Rain    
Averages and records for this station are not official NWS values.
T = Trace of Precipitation, MM = Missing Value Source: NWS Daily Summary

Daily Weather History Graph

Daily Weather History Graph

Search for Another Location

Airport or City:

Trip Planner

Search our weather history database for the weather conditions in past years. The results will help you decide how hot, cold, wet, or windy it might be!

Date:

Astronomy

Jan. 05, 2014 Rise Set
Actual Time 7:21 AM CST 5:14 PM CST
Civil Twilight 6:53 AM CST 5:42 PM CST
Nautical Twilight 6:21 AM CST 6:13 PM CST
Astronomical Twilight 5:51 AM CST 6:44 PM CST
Moon 10:14 AM CST (1/5) 10:30 PM CST (1/5)
Length of Visible Light 10h 48m
Length of Day
9h 52m
Waxing Crescent, 25% of the Moon is Illuminated
Jan 5
Waxing Crescent
Jan 7
First Quarter
Jan 15
Full
Jan 23
Last Quarter
Jan 30
New

Hourly Weather History & Observations

Time (CST) Temp. Windchill Dew Point Humidity Pressure Visibility Wind Dir Wind Speed Gust Speed Precip Events Conditions
12:09 AM 46.4 °F 44.3 °F 37.4 °F 71% 29.80 in 10.0 mi Variable 4.6 mph - N/A   Overcast
12:29 AM 46.4 °F 45.2 °F 37.4 °F 71% 29.80 in 10.0 mi SE 3.5 mph - N/A   Overcast
12:53 AM 46.9 °F - 37.0 °F 68% 29.79 in 10.0 mi Calm Calm - N/A   Overcast
1:53 AM 48.0 °F - 39.0 °F 71% 29.78 in 10.0 mi Calm Calm - N/A   Overcast
2:53 AM 51.1 °F - 42.1 °F 71% 29.74 in 10.0 mi Calm Calm - N/A   Overcast
3:53 AM 53.1 °F - 46.0 °F 77% 29.72 in 10.0 mi South 5.8 mph - N/A   Overcast
4:53 AM 54.0 °F - 48.9 °F 83% 29.68 in 10.0 mi Variable 5.8 mph - 0.00 in   Overcast
5:53 AM 51.1 °F - 48.9 °F 92% 29.69 in 6.0 mi WNW 5.8 mph - 0.04 in Rain Light Rain
5:59 AM 51.8 °F - 48.2 °F 88% 29.70 in 4.0 mi NW 11.5 mph 19.6 mph 0.01 in Rain Rain
6:18 AM 44.6 °F 38.8 °F 42.8 °F 93% 29.71 in 5.0 mi WNW 11.5 mph 20.7 mph 0.02 in Rain Light Rain
6:41 AM 44.6 °F 40.2 °F 42.8 °F 93% 29.73 in 5.0 mi West 8.1 mph 16.1 mph 0.05 in Rain Light Rain
6:50 AM 44.6 °F 39.7 °F 42.8 °F 93% 29.73 in 5.0 mi WNW 9.2 mph - 0.05 in Rain Light Rain
6:53 AM 45.0 °F 39.7 °F 42.1 °F 90% 29.73 in 5.0 mi WNW 10.4 mph - 0.05 in Rain Light Rain
7:20 AM 42.8 °F 37.0 °F 39.2 °F 87% 29.77 in 5.0 mi WNW 10.4 mph 25.3 mph 0.06 in Rain Light Rain
7:28 AM 42.8 °F 38.0 °F 39.2 °F 87% 29.77 in 5.0 mi WNW 8.1 mph 20.7 mph 0.08 in Rain Rain
7:53 AM 39.9 °F 32.9 °F 37.9 °F 93% 29.79 in 6.0 mi West 11.5 mph 17.3 mph 0.13 in Rain Light Rain
8:53 AM 37.0 °F 28.5 °F 35.1 °F 93% 29.81 in 10.0 mi West 13.8 mph 18.4 mph 0.04 in   Overcast
9:53 AM 33.1 °F 22.6 °F 30.0 °F 89% 29.87 in 3.0 mi WNW 16.1 mph 20.7 mph N/A   Overcast
10:09 AM 32.0 °F 22.1 °F 28.4 °F 87% 29.90 in 2.0 mi WNW 13.8 mph 31.1 mph N/A   Overcast
10:19 AM 32.0 °F 23.6 °F 28.4 °F 87% 29.90 in 1.8 mi WNW 10.4 mph 19.6 mph N/A   Overcast
10:30 AM 32.0 °F 23.0 °F 28.4 °F 87% 29.91 in 3.0 mi NW 11.5 mph 19.6 mph N/A   Overcast
10:46 AM 32.0 °F 21.6 °F 26.6 °F 80% 29.92 in 10.0 mi NNW 15.0 mph 24.2 mph N/A   Overcast
10:53 AM 32.0 °F 20.5 °F 25.0 °F 75% 29.92 in 10.0 mi NW 18.4 mph 24.2 mph N/A   Overcast
11:25 AM 28.4 °F 19.1 °F 23.0 °F 80% 29.95 in 10.0 mi NNW 10.4 mph 21.9 mph N/A   Overcast
11:34 AM 28.4 °F 18.0 °F 23.0 °F 80% 29.94 in 10.0 mi NW 12.7 mph 18.4 mph N/A   Overcast
11:53 AM 28.9 °F 16.9 °F 19.9 °F 69% 29.95 in 10.0 mi NW 17.3 mph 23.0 mph N/A   Overcast
12:53 PM 30.0 °F 19.5 °F 19.0 °F 64% 29.96 in 10.0 mi NW 13.8 mph 24.2 mph N/A   Overcast
1:46 PM 28.4 °F 17.5 °F 15.8 °F 59% 30.01 in 10.0 mi WNW 13.8 mph 21.9 mph N/A   Overcast
1:53 PM 28.0 °F 16.1 °F 16.0 °F 61% 30.01 in 10.0 mi WNW 16.1 mph 23.0 mph N/A   Overcast
2:53 PM 28.0 °F 17.0 °F 15.1 °F 58% 30.05 in 10.0 mi NW 13.8 mph 26.5 mph N/A   Overcast
3:53 PM 27.0 °F 14.7 °F 12.9 °F 56% 30.12 in 10.0 mi NNW 16.1 mph 26.5 mph N/A   Overcast
4:53 PM 26.1 °F 13.1 °F 12.0 °F 55% 30.18 in 10.0 mi NNW 17.3 mph 23.0 mph N/A   Overcast
5:53 PM 25.0 °F 13.1 °F 12.0 °F 58% 30.24 in 10.0 mi NNW 13.8 mph 25.3 mph N/A   Overcast
6:53 PM 23.0 °F 9.6 °F 10.9 °F 60% 30.30 in 10.0 mi NW 16.1 mph 23.0 mph N/A   Scattered Clouds
7:53 PM 21.0 °F 6.6 °F 9.0 °F 60% 30.35 in 10.0 mi NW 17.3 mph 25.3 mph N/A   Scattered Clouds
8:53 PM 19.9 °F 6.2 °F 6.1 °F 55% 30.39 in 10.0 mi NW 15.0 mph 23.0 mph N/A   Clear
9:53 PM 19.0 °F 7.5 °F 1.9 °F 47% 30.44 in 10.0 mi NNW 10.4 mph 18.4 mph N/A   Clear
10:53 PM 18.0 °F 7.7 °F -2.0 °F 41% 30.46 in 10.0 mi NNW 8.1 mph 17.3 mph N/A   Partly Cloudy
11:53 PM 17.1 °F 4.3 °F -0.9 °F 45% 30.50 in 10.0 mi NW 11.5 mph 16.1 mph N/A   Clear